Time_in_sec,Mx,My,Mz
1326899871.56853604,-0.04615124,0.59900630,-0.64773226
1326899871.61766481,-0.04610258,0.59914052,-0.64913088
1326899871.66863537,-0.04731115,0.59685469,-0.64790773
1326899871.71751022,-0.04688674,0.59804529,-0.64712912
1326899871.76952147,-0.04638135,0.59717792,-0.64518571
1326899871.81773448,-0.04713817,0.59888762,-0.64689428
1326899871.86954117,-0.04622641,0.59851670,-0.64684176
1326899871.91752172,-0.04766001,0.59646744,-0.64499599
1326899871.96858168,-0.04665039,0.59550041,-0.64557046
1326899872.02553606,-0.04736960,0.59900522,-0.64639854
1326899872.06960249,-0.04652941,0.59766340,-0.64545190
1326899872.12164927,-0.04653110,0.59886527,-0.64533323
1326899872.16960287,-0.04724840,0.59742016,-0.64447105
1326899872.22155237,-0.04613395,0.59864259,-0.64747411
1326899872.26855826,-0.04606771,0.59776556,-0.64415431
1326899872.31760168,-0.04627698,0.59766197,-0.64556539
1326899872.36863399,-0.04616621,0.59826493,-0.64581823
1326899872.42065263,-0.04635887,0.59984028,-0.64673108
1326899872.46955872,-0.04613468,0.59715426,-0.64313519
1326899872.52156115,-0.04791424,0.59670949,-0.64488435
1326899872.56961989,-0.04556375,0.59788299,-0.64438218
1326899872.61722374,-0.04571631,0.59897012,-0.64465290
1326899872.66861653,-0.04747868,0.59720039,-0.64626437
1326899872.71762133,-0.04753057,0.59829170,-0.64703882
1326899872.77072072,-0.04632755,0.59680724,-0.64428902
1326899872.82065105,-0.04672487,0.59863853,-0.64648795
1326899872.86954236,-0.04709616,0.59911990,-0.64612979
1326899872.91752195,-0.04726041,0.59610081,-0.64484423
1326899872.96951199,-0.04780797,0.59791410,-0.64514172
1326899873.01710463,-0.04690224,0.59816843,-0.64738548
1326899873.06854105,-0.04583798,0.59884977,-0.64453137
1326899873.11750388,-0.04695271,0.59827489,-0.64598864
1326899873.16956758,-0.04780717,0.59683257,-0.64526129
1326899873.21754050,-0.04562014,0.59957582,-0.64516115
1326899873.26873803,-0.04861302,0.59766394,-0.64340168
1326899873.31771016,-0.04724174,0.59732205,-0.64663416
1326899873.36954546,-0.04731591,0.59767336,-0.64562231
1326899873.42152977,-0.04641415,0.59766477,-0.64570022
1326899873.46889853,-0.04766821,0.59658915,-0.64512461
1326899873.51752257,-0.04660278,0.59693319,-0.64455956
1326899873.56865358,-0.04527392,0.59775424,-0.64385617
1326899873.61765409,-0.04732971,0.59659457,-0.64599729
1326899873.66896796,-0.04670434,0.59704936,-0.64405674
1326899873.72156334,-0.04434540,0.59788406,-0.64571589
1326899873.76951647,-0.04679953,0.59798616,-0.64365834
1326899873.82164598,-0.04597335,0.59813541,-0.64730525
1326899873.86865330,-0.04644891,0.59813279,-0.64656758
1326899873.92152548,-0.04605160,0.59726286,-0.64424866
1326899873.96854639,-0.04734705,0.59883809,-0.64407617
1326899874.02094603,-0.04638357,0.59924424,-0.64723742
1326899874.06882691,-0.04513189,0.59789395,-0.64588630
1326899874.12156534,-0.04699471,0.59804255,-0.64675307
1326899874.16951799,-0.04617452,0.59742546,-0.64606732
1326899874.22053576,-0.04638828,0.59792346,-0.64748293
1326899874.26967716,-0.04719064,0.59731233,-0.64574021
1326899874.32152534,-0.04650254,0.59876299,-0.64711320
1326899874.36965775,-0.04476769,0.59933639,-0.64613128
1326899874.42553997,-0.04584872,0.59815425,-0.64707309
1326899874.46976805,-0.04710728,0.59768021,-0.64650208
1326899874.52164531,-0.04522481,0.59750879,-0.64560527
1326899874.56954050,-0.04596145,0.59849352,-0.64705259
1326899874.62060571,-0.04707480,0.59972036,-0.64826775
1326899874.66856527,-0.04778746,0.59767413,-0.64740121
1326899874.71762466,-0.04476913,0.59919697,-0.64648324
1326899874.76863718,-0.04581993,0.59692824,-0.64703369
1326899874.81752133,-0.04492316,0.60030740,-0.64904517
1326899874.86954331,-0.04693867,0.59887689,-0.64825428
1326899874.92231297,-0.04640125,0.59742624,-0.64808726
1326899874.97015643,-0.04605491,0.59752703,-0.64654171
1326899875.02055740,-0.04620254,0.59875637,-0.64897680
1326899875.07071280,-0.04649999,0.59814250,-0.64746141
1326899875.11749291,-0.04600584,0.59840518,-0.65010905
1326899875.17093635,-0.04658766,0.59719819,-0.64911407
1326899875.22050905,-0.04550958,0.59874094,-0.64817512
1326899875.26952004,-0.04567960,0.59826952,-0.64894474
1326899875.32056856,-0.04537036,0.59828055,-0.65032798
1326899875.36950183,-0.04540814,0.59766382,-0.64879835
1326899875.42176652,-0.04662774,0.59768635,-0.64975613
1326899875.46964216,-0.04688921,0.59792978,-0.64977217
1326899875.51751781,-0.04588931,0.59646100,-0.64830697
1326899875.56854606,-0.04699705,0.59888798,-0.64927578
1326899875.62062383,-0.04568100,0.59925407,-0.65111560
1326899875.66925955,-0.04671200,0.59743881,-0.64899534
1326899875.72058225,-0.04479533,0.59862465,-0.64928073
1326899875.76924062,-0.04767923,0.59745991,-0.65006661
1326899875.82056379,-0.04568481,0.59781331,-0.65136009
1326899875.86964250,-0.04671840,0.59731990,-0.64912212
1326899875.91749692,-0.04762175,0.59756905,-0.64904600
1326899875.97253060,-0.04724975,0.59600651,-0.64952368
1326899876.02554035,-0.04539146,0.59720343,-0.65083057
1326899876.06911278,-0.04642903,0.59901649,-0.65064567
1326899876.12063146,-0.04588571,0.59854901,-0.65252179
1326899876.16952562,-0.04809422,0.59794950,-0.65047461
1326899876.22151995,-0.04579506,0.59891546,-0.65315586
1326899876.26965189,-0.04554038,0.59780914,-0.65109760
1326899876.32153082,-0.04437976,0.59770101,-0.65345162
1326899876.36965418,-0.04652451,0.59893787,-0.65459597
1326899876.42063475,-0.04560645,0.59964687,-0.65429622
1326899876.46953464,-0.04606713,0.59685522,-0.65137416
1326899876.52050495,-0.04657558,0.59637833,-0.65127134
1326899876.56950283,-0.04555098,0.59807473,-0.65351838
1326899876.62162519,-0.04539106,0.59794742,-0.65299958
1326899876.66965675,-0.04738418,0.59821767,-0.65387422
1326899876.71751881,-0.04610491,0.59880775,-0.65406299
1326899876.76965213,-0.04559606,0.59745938,-0.65211636
1326899876.82063293,-0.04636379,0.59772933,-0.65419674
1326899876.86883974,-0.04727793,0.59942198,-0.65413153
1326899876.92064571,-0.04592701,0.59627455,-0.65352613
1326899876.96966410,-0.04673051,0.59760910,-0.65383410
1326899877.02150774,-0.04735460,0.59895611,-0.65553248
1326899877.06960630,-0.04617339,0.59822017,-0.65533531
1326899877.12074757,-0.04444342,0.59939492,-0.65435809
1326899877.16953921,-0.04731183,0.59810710,-0.65488768
1326899877.22053409,-0.04496697,0.59978509,-0.65668052
1326899877.26956916,-0.04570832,0.59688014,-0.65415484
1326899877.31894088,-0.04603906,0.59761727,-0.65532368
1326899877.36950231,-0.04572600,0.59906906,-0.65646237
1326899877.41937566,-0.04535490,0.59762681,-0.65694094
1326899877.47042441,-0.04620757,0.59712225,-0.65380204
1326899877.52150226,-0.04629233,0.59773898,-0.65521115
1326899877.56857109,-0.04623985,0.59931391,-0.65636498
1326899877.62152267,-0.04521985,0.59808159,-0.65451854
1326899877.66977191,-0.04804717,0.59714633,-0.65428466
1326899877.72054291,-0.04576188,0.59917271,-0.65481049
1326899877.76950216,-0.04613230,0.59857267,-0.65457189
1326899877.82155442,-0.04576738,0.59893346,-0.65493637
1326899877.86953306,-0.04576828,0.59905380,-0.65493727
1326899877.91750574,-0.04652012,0.59737539,-0.65471190
1326899877.97024202,-0.04684396,0.59736717,-0.65358406
1326899878.01752234,-0.04564124,0.59845227,-0.65505332
1326899878.06986022,-0.04598988,0.59688711,-0.65455216
1326899878.12177849,-0.04469310,0.59903544,-0.65424192
1326899878.16950130,-0.04709083,0.59760779,-0.65334469
1326899878.22128105,-0.04603525,0.59905803,-0.65507919
1326899878.26862192,-0.04708415,0.59750974,-0.65550739
1326899878.31763053,-0.04448631,0.59928292,-0.65512335
1326899878.36870098,-0.04564613,0.59830976,-0.65288883
1326899878.42058277,-0.04510820,0.59856409,-0.65477037
1326899878.46929026,-0.04629251,0.59891695,-0.65280122
1326899878.52051830,-0.04557568,0.59747881,-0.65402460
1326899878.56950307,-0.04581436,0.59759778,-0.65365666
1326899878.62055564,-0.04461984,0.59880459,-0.65525448
1326899878.66853428,-0.04733771,0.59784847,-0.65310538
1326899878.71749640,-0.04573948,0.59830421,-0.65225750
1326899878.76857591,-0.04693910,0.59760219,-0.65295452
1326899878.82063532,-0.04385790,0.60108167,-0.65522903
1326899878.86950517,-0.04652030,0.59855336,-0.65230197
1326899878.92052364,-0.04641268,0.59567320,-0.65303928
1326899878.97168899,-0.04644445,0.59700060,-0.65343231
1326899879.01724124,-0.04363381,0.59839624,-0.65163386
1326899879.06866503,-0.04680647,0.59820086,-0.65282428
1326899879.11752796,-0.04522075,0.59820187,-0.65451944
1326899879.16865206,-0.04702976,0.59723580,-0.65232050
1326899879.22050071,-0.04533049,0.59843969,-0.65414530
1326899879.26900315,-0.04656688,0.59796160,-0.65319127
1326899879.31772041,-0.04633000,0.59808326,-0.65356100
1326899879.36899257,-0.04627612,0.59867358,-0.65254408
1326899879.41753650,-0.04570889,0.59988332,-0.65379441
1326899879.46862197,-0.04633460,0.59772372,-0.65368599
1326899879.51751637,-0.04558416,0.59781748,-0.65186369
1326899879.56865263,-0.04759997,0.59917313,-0.65300184
1326899879.62186313,-0.04477517,0.59929132,-0.65564829
1326899879.66885829,-0.04552640,0.59770966,-0.65313256
1326899879.72055864,-0.04514048,0.59818655,-0.65311486
1326899879.76950026,-0.04824106,0.59809762,-0.65302926
1326899879.82088470,-0.04458796,0.59843814,-0.65474105
1326899879.86859465,-0.04461014,0.59865928,-0.65283465
1326899879.92164326,-0.04716060,0.59639657,-0.65244895
1326899879.96866035,-0.04559516,0.59733909,-0.65211546
1326899880.02054048,-0.04492920,0.59783256,-0.65399176
1326899880.06872988,-0.04505342,0.59903419,-0.65375251
1326899880.12065458,-0.04407940,0.59987599,-0.65472347
1326899880.16950130,-0.04690172,0.59747499,-0.65231520
1326899880.22058487,-0.04556288,0.59771663,-0.65377104
1326899880.26862931,-0.04624794,0.59782737,-0.65215468
1326899880.31761885,-0.04465033,0.59818643,-0.65359718
1326899880.36859441,-0.04549221,0.59880757,-0.65466589
1326899880.42067122,-0.04406071,0.60109699,-0.65651304
1326899880.46954060,-0.04799588,0.59905851,-0.65314996
1326899880.52056885,-0.04610901,0.59758395,-0.65201807
1326899880.56951237,-0.04780367,0.59930879,-0.65428674
1326899880.62166095,-0.04602065,0.59905523,-0.65482378
1326899880.66863775,-0.04512690,0.59734309,-0.65298086
1326899880.71750689,-0.04611821,0.59943420,-0.65648645
1326899880.76954389,-0.04671682,0.59772664,-0.65357965
1326899880.82059216,-0.04552341,0.59713179,-0.65541929
1326899880.86960459,-0.04668274,0.59786355,-0.65523338
1326899880.92057800,-0.04630973,0.59714168,-0.65558970
1326899880.96950269,-0.04580965,0.59891820,-0.65341121
1326899881.02056861,-0.04508542,0.59843963,-0.65438646
1326899881.06857800,-0.04604614,0.59954059,-0.65521049
1326899881.12152386,-0.04405661,0.59975153,-0.65433949
1326899881.17126346,-0.04513319,0.59818518,-0.65298718
1326899881.21770692,-0.04481525,0.59977949,-0.65629035
1326899881.26934242,-0.04693051,0.59822452,-0.65499496
1326899881.31759930,-0.04429899,0.59939069,-0.65409565
1326899881.36952066,-0.04580746,0.59942162,-0.65557843
1326899881.42064571,-0.04505414,0.59797651,-0.65616333
1326899881.46864080,-0.04647084,0.59760624,-0.65381992
1326899881.51766443,-0.04562985,0.59710544,-0.65275210
1326899881.56863928,-0.04523154,0.59964538,-0.65453029
1326899881.62131143,-0.04512898,0.60036993,-0.65491164
1326899881.66919398,-0.04449141,0.59721851,-0.65319973
1326899881.71757007,-0.04577827,0.59941608,-0.65506768
1326899881.76951241,-0.04612040,0.59893078,-0.65431929
1326899881.81719351,-0.04392048,0.59890801,-0.65432602
1326899881.86860490,-0.04642296,0.59882170,-0.65509868
1326899881.91825104,-0.04482416,0.59627426,-0.65461129
1326899881.96863174,-0.04565163,0.59807056,-0.65301472
1326899882.01757145,-0.04578086,0.60073793,-0.65494996
1326899882.06957006,-0.04636929,0.59749007,-0.65432262
1326899882.11765814,-0.04531881,0.59687585,-0.65413350
1326899882.16950107,-0.04713461,0.59761614,-0.65411085
1326899882.21753192,-0.04610031,0.59916723,-0.65393800
1326899882.26964116,-0.04625225,0.59725088,-0.65456909
1326899882.31760406,-0.04427530,0.59914595,-0.65371078
1326899882.36965275,-0.04601415,0.60013509,-0.65457660
1326899882.41765189,-0.04496647,0.59892076,-0.65451062
1326899882.46951818,-0.04558887,0.59649700,-0.65210915
1326899882.52064633,-0.04496758,0.59711915,-0.65475243
1326899882.56950235,-0.04627921,0.60085970,-0.65459621
1326899882.62128234,-0.04282061,0.59948564,-0.65312451
1326899882.66873121,-0.04580785,0.59867764,-0.65340942
1326899882.72154498,-0.04397066,0.59879744,-0.65521896
1326899882.76980066,-0.04580426,0.59819645,-0.65340579
1326899882.82063675,-0.04397785,0.59975982,-0.65522617
1326899882.86949897,-0.04526532,0.59929144,-0.65516603
1326899882.92049694,-0.04533060,0.59747875,-0.65426570
1326899882.96951699,-0.04609143,0.59700328,-0.65404940
1326899883.02158213,-0.04470191,0.59906048,-0.65666085
1326899883.06948900,-0.04670362,0.59870839,-0.65549511
1326899883.12459683,-0.04511920,0.59808570,-0.65502214
1326899883.16849279,-0.04622716,0.59859079,-0.65623188
1326899883.21787500,-0.04422085,0.59930229,-0.65727270
1326899883.26856112,-0.04553341,0.59749407,-0.65554971
1326899883.31759644,-0.04478228,0.59811479,-0.65818590
1326899883.36961007,-0.04613622,0.59874022,-0.65915537
1326899883.42063880,-0.04441636,0.59931624,-0.65842897
1326899883.46951866,-0.04549462,0.59895146,-0.65695804
1326899883.52152109,-0.04596361,0.59788978,-0.65850347
1326899883.56861663,-0.04402236,0.59871048,-0.65840310
1326899883.62157297,-0.04363054,0.60017061,-0.66042852
1326899883.66883850,-0.04634852,0.59825349,-0.65839982
1326899883.72053027,-0.04547234,0.59969127,-0.65874398
1326899883.76950383,-0.04743418,0.59692913,-0.65717703
1326899883.82050204,-0.04593611,0.59908575,-0.65787405
1326899883.86828446,-0.04526594,0.59919477,-0.65745634
1326899883.91752076,-0.04493351,0.59725606,-0.65640616
1326899883.96829224,-0.04547654,0.59750652,-0.65681946
1326899884.02166080,-0.04509871,0.59906608,-0.65680993
1326899884.06934309,-0.04539239,0.59679306,-0.65770072
1326899884.12153459,-0.04572151,0.59846759,-0.65645790
1326899884.16953874,-0.04589704,0.59775692,-0.65735334
1326899884.22176671,-0.04541586,0.59895974,-0.65784472
1326899884.26863766,-0.04602137,0.59799755,-0.65723461
1326899884.31759071,-0.04490561,0.59919608,-0.65794575
1326899884.36856151,-0.04621127,0.59921169,-0.65814459
1326899884.42055559,-0.04430751,0.59919870,-0.65880400
1326899884.46955132,-0.04543136,0.59908283,-0.65810102
1326899884.52169514,-0.04586296,0.59789389,-0.65900707
1326899884.56950426,-0.04522086,0.59981012,-0.65885836
1326899884.62120867,-0.04561127,0.59993470,-0.65888059
1326899884.66966319,-0.04562428,0.59777492,-0.65937501
1326899884.71751833,-0.04427922,0.59931344,-0.65829420
1326899884.76955891,-0.04609395,0.59875548,-0.66068047
1326899884.82956576,-0.04479648,0.59886152,-0.66061026
1326899884.86956167,-0.04527204,0.59885889,-0.65987259
1326899884.91724181,-0.04455780,0.59874254,-0.66097820
1326899884.96963549,-0.04537651,0.59741396,-0.65961349
1326899885.02073407,-0.04470802,0.59872454,-0.65907711
1326899885.06965137,-0.04623378,0.59911913,-0.66081798
1326899885.11795449,-0.04470033,0.59946716,-0.66111845
1326899885.16954970,-0.04524846,0.59765315,-0.65960819
1326899885.22155762,-0.04592083,0.59960997,-0.66207713
1326899885.26906562,-0.04694723,0.59815419,-0.65983194
1326899885.31778836,-0.04506435,0.59898609,-0.66075307
1326899885.36951661,-0.04533862,0.59899169,-0.66102266
1326899885.41757846,-0.04650804,0.59912479,-0.66108757
1326899885.46965766,-0.04450683,0.59777188,-0.66020483
1326899885.51757860,-0.04508995,0.59851044,-0.66126019
1326899885.56954908,-0.04562557,0.59972048,-0.66142541
1326899885.62091565,-0.04467024,0.59934127,-0.66060680
1326899885.66881084,-0.04648856,0.59669524,-0.65877825
1326899885.71789598,-0.04502668,0.59864181,-0.66240317
1326899885.76950192,-0.04618280,0.59814847,-0.66004461
1326899885.82063270,-0.04433192,0.59838581,-0.66159970
1326899885.86863589,-0.04603428,0.59936804,-0.66182709
1326899885.91753864,-0.04595142,0.59803087,-0.66054022
1326899885.96878099,-0.04728666,0.59730804,-0.65908080
1326899886.02068901,-0.04566127,0.59864616,-0.66218334
1326899886.06952929,-0.04579200,0.59876788,-0.66219139
1326899886.11763501,-0.04501597,0.59933722,-0.65986198
1326899886.16950202,-0.04584017,0.59776944,-0.65862316
1326899886.21765804,-0.04575541,0.59972191,-0.66143250
1326899886.26863456,-0.04562248,0.59753436,-0.65937322
1326899886.31765795,-0.04268901,0.59871292,-0.65998483
1326899886.36866021,-0.04623568,0.59839875,-0.66094023
1326899886.42575049,-0.04452581,0.59933710,-0.66034430
1326899886.46950722,-0.04620409,0.59824932,-0.65813732
1326899886.52153707,-0.04626336,0.59838074,-0.65915972
1326899886.56952739,-0.04469253,0.59860146,-0.65882081
1326899886.61756253,-0.04374690,0.59836757,-0.66042209
1326899886.67184043,-0.04598370,0.59765333,-0.65888470
1326899886.71755624,-0.04559128,0.59921014,-0.65861976
1326899886.76892686,-0.04332479,0.59905457,-0.65747648
1326899886.82056546,-0.04560278,0.59959602,-0.66104144
1326899886.86860394,-0.04477208,0.59967446,-0.65781456
1326899886.92224240,-0.04514091,0.59691191,-0.65781510
1326899886.96965218,-0.04501007,0.59775114,-0.65768665
1326899887.02075386,-0.04556040,0.59800303,-0.65822768
1326899887.06862259,-0.04432800,0.59821826,-0.65701628
1326899887.11764550,-0.04526144,0.59859329,-0.65745181
1326899887.16954541,-0.04604517,0.59728134,-0.65773994
1326899887.22207832,-0.04474260,0.59688264,-0.65537483
1326899887.26937222,-0.04630434,0.59641993,-0.65558422
1326899887.32002568,-0.04604406,0.59908301,-0.65749812
1326899887.36950397,-0.04354158,0.59916931,-0.65672547
1326899887.42063880,-0.04598539,0.59628564,-0.65454763
1326899887.46935868,-0.04535659,0.59882838,-0.65682232
1326899887.51750636,-0.04674101,0.59883565,-0.65613443
1326899887.56948280,-0.04554319,0.59977829,-0.65543920
1326899887.61721826,-0.04604654,0.60136586,-0.65725994
1326899887.66955876,-0.04618439,0.59774172,-0.65558708
1326899887.71770263,-0.04589452,0.59857404,-0.65494078
1326899887.76954508,-0.04569082,0.59843838,-0.65365589
1326899887.81756306,-0.04458785,0.59939909,-0.65462059
1326899887.86921716,-0.04568582,0.59954190,-0.65569991
1326899887.91753149,-0.04578168,0.59615004,-0.65326273
1326899887.96849036,-0.04714011,0.59737694,-0.65423667
1326899888.01753759,-0.04573780,0.59710270,-0.65237617
1326899888.06953335,-0.04470780,0.59807730,-0.65461779
1326899888.12052274,-0.04497377,0.59892219,-0.65463829
1326899888.16953778,-0.04633051,0.59894753,-0.65573090
1326899888.22151089,-0.04590591,0.59735161,-0.65302354
1326899888.26851535,-0.04575728,0.59953219,-0.65468550
1326899888.31760979,-0.04525422,0.60073084,-0.65479380
1326899888.36954165,-0.04574639,0.59904963,-0.65455419
1326899888.41764116,-0.04618687,0.60002458,-0.65534890
1326899888.46955085,-0.04617928,0.59723699,-0.65329218
1326899888.52051735,-0.04580347,0.59711516,-0.65352535
1326899888.56953216,-0.04615329,0.59845656,-0.65495408
1326899888.61754608,-0.04631681,0.59906501,-0.65547645
1326899888.66966248,-0.04605955,0.59663683,-0.65353596
1326899888.72154927,-0.04480655,0.59879351,-0.65399188
1326899888.76965237,-0.04584175,0.59736276,-0.65416557
1326899888.82065368,-0.04543474,0.59891677,-0.65364528
1326899888.86852121,-0.04602896,0.59821594,-0.65507287
1326899888.92063785,-0.04574649,0.59808862,-0.65467465
1326899888.96956277,-0.04506464,0.59663379,-0.65424520
1326899889.02053499,-0.04547773,0.59784383,-0.65453094
1326899889.06968260,-0.04493149,0.59893745,-0.65616345
1326899889.12170601,-0.04578657,0.59857678,-0.65531671
1326899889.16968417,-0.04620757,0.59712225,-0.65380204
1326899889.22054195,-0.04481065,0.60013896,-0.65616536
1326899889.26867723,-0.04651732,0.59797549,-0.65458876
1326899889.32151866,-0.04546583,0.59820193,-0.65427828
1326899889.36949921,-0.04442585,0.59881425,-0.65638947
